GFSNW_prec_precacc_291.txt.gz
Total_Precipitation_Accumulation
1.99 2.01 1.83 1.72 2.02 1.95 2.37 2.26 2.06 1.93 2.35 2.58 1.83 1.09 0.78 0.47 0.16 0.17 0.15 0.12 0.04 0.03 0.04 0.07 0.13 0.12 0.09 0.03 0.11 0.32 0.42 0.84 0.83 0.65 0.19 0.20 0.33 0.33 0.24 0.86 0.68 0.51 0.70 1.66
2.13 2.52 2.27 1.57 1.99 2.10 2.17 2.19 1.95 2.78 1.58 1.14 0.75 0.48 0.44 0.30 0.11 0.17 0.24 0.15 0.06 0.08 0.07 0.07 0.04 0.02 0.01 0.00 0.03 0.26 0.55 1.15 0.89 0.73 0.52 0.60 0.82 0.38 0.42 0.70 1.12 0.89 0.70 1.25
2.03 2.40 2.61 1.97 1.85 1.95 2.33 2.28 2.16 3.82 2.49 0.62 0.21 0.47 0.54 0.36 0.15 0.18 0.26 0.25 0.11 0.08 0.06 0.03 0.06 0.01 0.02 0.01 0.03 0.25 0.81 0.90 0.93 0.81 0.76 0.98 0.78 0.37 0.61 1.21 1.33 0.51 0.39 0.26
1.89 2.11 2.75 3.11 2.47 2.27 2.32 1.86 1.11 0.99 1.09 0.57 0.21 0.50 0.51 0.46 0.29 0.20 0.21 0.18 0.06 0.15 0.22 0.11 0.06 0.04 0.07 0.05 0.03 0.21 0.73 1.22 1.29 0.55 0.42 0.76 0.68 0.40 0.50 1.05 0.67 0.70 0.32 0.16
2.10 2.00 2.17 2.84 2.48 2.43 1.83 1.24 0.90 0.30 0.20 0.14 0.22 0.32 0.37 0.40 0.40 0.41 0.31 0.22 0.10 0.19 0.22 0.15 0.27 0.22 0.21 0.11 0.05 0.19 0.61 1.03 0.83 0.37 0.26 0.44 0.59 0.30 0.43 0.62 0.47 0.39 0.20 0.20
2.06 1.89 2.08 2.40 2.07 2.45 1.90 1.05 0.81 0.57 0.49 0.27 0.22 0.18 0.19 0.31 0.47 0.40 0.18 0.19 0.31 0.23 0.10 0.17 0.15 0.10 0.07 0.11 0.10 0.16 0.45 0.72 0.97 0.75 0.42 0.63 0.69 0.38 0.40 0.51 0.39 0.28 0.23 0.21
1.75 1.80 1.98 2.17 2.15 2.25 1.88 1.26 1.32 1.03 0.65 0.27 0.19 0.15 0.24 0.37 0.41 0.47 0.28 0.19 0.29 0.19 0.16 0.15 0.10 0.08 0.05 0.09 0.09 0.07 0.19 0.46 0.93 0.90 0.70 0.81 0.60 0.31 0.23 0.25 0.26 0.20 0.18 0.11
1.65 1.68 1.77 1.89 1.93 1.62 1.38 1.17 1.43 1.26 0.77 0.28 0.20 0.16 0.31 0.40 0.39 0.51 0.42 0.21 0.17 0.17 0.19 0.38 0.35 0.19 0.13 0.04 0.04 0.08 0.10 0.30 0.57 0.49 0.38 0.27 0.19 0.18 0.18 0.24 0.19 0.11 0.13 0.06
1.80 1.58 1.47 1.64 1.52 1.44 1.17 1.02 1.32 1.68 1.37 0.44 0.19 0.27 0.38 0.48 0.44 0.54 0.38 0.23 0.24 0.32 0.51 0.69 0.50 0.23 0.15 0.07 0.05 0.04 0.07 0.18 0.58 0.45 0.53 0.23 0.10 0.02 0.02 0.04 0.14 0.02 0.02 0.03
2.03 1.92 1.65 1.65 1.30 1.14 1.09 0.92 1.04 1.60 1.44 0.35 0.13 0.22 0.43 0.66 0.66 0.89 0.63 0.50 0.53 0.50 0.71 0.74 0.40 0.12 0.04 0.07 0.05 0.07 0.22 0.30 0.54 0.50 0.70 0.19 0.05 0.01 0.01 0.10 0.12 0.01 0.04 0.07
1.79 1.91 1.61 1.43 1.14 1.16 1.36 0.80 0.86 1.54 1.52 0.52 0.15 0.16 0.31 0.68 0.74 0.92 0.94 1.17 0.80 0.85 0.92 0.76 0.39 0.29 0.20 0.14 0.06 0.06 0.22 0.37 0.30 0.40 0.55 0.22 0.02 0.05 0.16 0.18 0.06 0.02 0.07 0.07
1.62 1.44 1.31 1.34 1.17 1.15 1.60 1.05 0.67 1.12 1.61 1.11 0.31 0.19 0.18 0.38 0.54 0.90 1.11 1.12 0.63 0.96 1.09 0.96 0.79 0.62 0.33 0.18 0.22 0.03 0.24 0.28 0.38 0.35 0.18 0.07 0.08 0.17 0.14 0.11 0.17 0.06 0.11 0.05
1.60 1.35 1.25 1.29 1.16 1.14 1.66 1.16 0.89 1.42 1.82 1.23 0.54 0.26 0.11 0.19 0.30 0.63 1.10 0.91 0.63 0.90 0.98 1.51 1.21 0.79 0.31 0.31 0.22 0.17 0.13 0.16 0.39 0.27 0.05 0.04 0.09 0.07 0.06 0.10 0.10 0.04 0.06 0.10
1.72 1.46 1.35 1.17 1.08 1.29 1.72 1.16 0.96 1.72 2.68 2.67 0.70 0.10 0.06 0.10 0.30 0.51 0.75 0.92 0.83 0.93 1.17 1.69 1.66 0.90 0.33 0.22 0.19 0.27 0.21 0.17 0.24 0.21 0.03 0.12 0.07 0.05 0.07 0.08 0.03 0.03 0.02 0.03
1.63 1.43 1.39 1.34 1.35 1.71 1.63 1.29 1.20 1.19 2.11 2.41 0.83 0.26 0.11 0.10 0.28 0.52 0.70 0.81 1.14 1.17 1.50 1.70 1.07 0.49 0.48 0.43 0.43 0.45 0.31 0.48 0.55 0.33 0.07 0.38 0.15 0.02 0.04 0.11 0.05 0.06 0.14 0.13
1.47 1.37 1.45 1.54 1.74 2.28 2.44 3.29 1.99 1.11 1.43 3.70 2.67 0.84 0.26 0.16 0.28 0.55 0.76 0.82 0.97 1.48 1.81 1.49 0.81 0.34 1.00 1.63 0.68 0.28 0.19 0.21 0.38 0.37 0.16 0.16 0.09 0.02 0.02 0.10 0.07 0.11 0.20 0.16
1.72 1.70 1.68 1.72 2.00 2.21 2.81 3.18 1.74 1.47 2.34 4.89 3.93 1.91 0.71 0.35 0.45 0.79 0.95 0.99 1.08 1.32 1.92 1.43 0.82 0.54 1.77 2.24 0.89 0.16 0.08 0.04 0.04 0.13 0.33 0.27 0.06 0.11 0.07 0.13 0.10 0.09 0.07 0.06
2.09 2.11 2.16 2.22 2.49 2.78 2.60 1.90 1.59 1.91 3.13 4.12 3.93 1.97 0.86 0.60 0.77 1.07 1.08 1.12 1.25 1.52 1.68 1.22 0.81 0.97 1.61 1.61 0.28 0.08 0.06 0.05 0.03 0.05 0.14 0.25 0.12 0.07 0.09 0.11 0.10 0.09 0.05 0.06
2.86 3.09 3.19 3.64 3.59 2.92 2.36 2.09 2.24 2.38 3.90 5.61 3.28 1.21 0.87 0.85 0.69 0.90 1.10 1.30 1.80 1.73 1.49 1.21 1.09 1.06 1.16 0.66 0.31 0.15 0.12 0.24 0.21 0.05 0.01 0.02 0.06 0.07 0.06 0.08 0.12 0.19 0.16 0.15
3.98 4.09 4.62 4.72 3.62 2.98 3.13 3.99 4.88 5.43 4.91 3.88 2.05 0.83 0.91 0.93 0.92 1.36 1.58 1.66 1.61 1.54 1.06 1.24 1.40 0.82 0.39 0.20 0.16 0.22 0.21 0.21 0.22 0.33 0.31 0.30 0.23 0.13 0.10 0.16 0.22 0.31 0.28 0.22
4.61 4.53 3.99 3.90 3.36 3.95 4.80 5.32 4.76 4.29 3.62 2.38 1.45 1.05 0.96 0.94 1.17 1.46 1.69 1.79 1.52 1.50 0.77 1.18 1.06 0.56 0.19 0.11 0.09 0.06 0.09 0.15 0.20 0.35 0.39 0.44 0.53 0.46 0.35 0.24 0.22 0.21 0.26 0.39
4.29 3.66 3.64 4.18 4.44 4.99 4.73 3.62 2.35 2.14 1.73 1.33 1.01 0.67 0.76 1.09 1.34 1.89 2.21 1.91 1.59 1.21 0.74 1.25 0.55 0.19 0.05 0.08 0.13 0.17 0.18 0.23 0.26 0.33 0.45 0.47 0.53 0.53 0.46 0.40 0.38 0.38 0.38 0.37
4.63 4.72 4.92 4.39 3.83 3.49 2.50 1.47 1.04 0.95 0.76 0.70 0.70 0.77 0.91 1.11 1.42 2.22 2.09 2.01 1.41 0.87 1.02 0.67 0.24 0.09 0.12 0.22 0.17 0.12 0.07 0.14 0.30 0.46 0.59 0.52 0.40 0.31 0.40 0.49 0.48 0.49 0.46 0.50
6.01 5.14 4.49 2.92 2.09 0.97 0.48 0.45 0.48 0.39 0.50 0.61 0.58 0.90 0.98 1.05 1.40 1.65 1.81 1.21 1.11 1.05 0.63 0.25 0.15 0.21 0.29 0.26 0.23 0.24 0.16 0.19 0.37 0.51 0.51 0.44 0.46 0.47 0.45 0.56 0.65 0.64 0.74 0.83
5.21 4.18 2.69 1.45 0.71 0.46 0.53 0.48 0.48 0.62 0.64 0.71 0.87 1.04 1.01 1.27 1.67 1.44 1.41 1.42 0.85 0.32 0.18 0.20 0.32 0.44 0.54 0.55 0.56 0.53 0.41 0.41 0.57 0.74 0.74 0.70 0.46 0.38 0.58 0.84 0.83 0.67 0.69 0.87
4.48 3.38 1.83 0.82 0.53 0.57 0.65 0.64 0.71 0.73 0.77 0.93 1.36 1.51 1.51 1.63 1.59 1.45 0.92 0.74 0.40 0.34 0.49 0.63 0.62 0.72 0.81 0.84 0.87 0.94 0.97 0.96 0.89 1.22 1.39 1.10 0.79 0.78 0.80 0.71 0.83 0.81 0.74 0.75
4.27 1.92 0.88 0.77 0.73 0.80 0.90 0.79 0.79 0.80 1.14 1.22 1.77 2.03 1.26 1.06 1.14 0.53 0.27 0.34 0.34 0.55 0.76 0.87 0.87 0.88 0.78 0.68 0.77 0.92 1.10 1.26 1.08 1.13 1.23 1.36 1.16 0.72 0.40 0.54 0.61 0.51 0.51 0.60

GFSNW_prec_precacc_294.txt.gz
Total_Precipitation_Accumulation
1.99 2.01 1.83 1.72 2.03 1.95 2.37 2.26 2.06 1.93 2.35 2.58 1.83 1.09 0.78 0.47 0.16 0.17 0.15 0.12 0.04 0.04 0.04 0.10 0.16 0.13 0.10 0.03 0.11 0.33 0.42 0.86 0.84 0.65 0.19 0.20 0.33 0.33 0.24 0.87 0.71 0.52 0.71 1.66
2.13 2.53 2.27 1.58 1.99 2.11 2.20 2.20 1.95 2.78 1.58 1.14 0.75 0.48 0.45 0.30 0.11 0.17 0.24 0.15 0.07 0.11 0.15 0.17 0.09 0.02 0.01 0.01 0.04 0.30 0.59 1.20 0.92 0.73 0.52 0.60 0.82 0.38 0.43 0.71 1.14 0.91 0.70 1.25
2.03 2.40 2.62 1.97 1.85 1.96 2.35 2.30 2.16 3.82 2.49 0.62 0.21 0.47 0.55 0.37 0.15 0.18 0.26 0.26 0.13 0.11 0.08 0.05 0.12 0.02 0.02 0.01 0.03 0.26 0.83 0.94 0.94 0.82 0.76 0.98 0.81 0.37 0.61 1.22 1.36 0.52 0.39 0.26
1.89 2.12 2.76 3.12 2.47 2.28 2.35 1.89 1.11 0.99 1.09 0.58 0.22 0.52 0.53 0.47 0.30 0.20 0.21 0.19 0.06 0.15 0.23 0.11 0.06 0.04 0.08 0.06 0.04 0.21 0.75 1.24 1.29 0.55 0.42 0.76 0.68 0.40 0.50 1.05 0.67 0.71 0.32 0.16
2.11 2.01 2.18 2.84 2.49 2.44 1.85 1.27 0.92 0.32 0.21 0.15 0.24 0.33 0.38 0.42 0.41 0.42 0.33 0.25 0.11 0.21 0.24 0.16 0.27 0.25 0.27 0.17 0.07 0.20 0.62 1.05 0.83 0.37 0.26 0.44 0.59 0.30 0.43 0.62 0.47 0.39 0.20 0.20
2.07 1.90 2.09 2.40 2.08 2.48 1.94 1.08 0.84 0.62 0.52 0.29 0.27 0.20 0.21 0.33 0.50 0.41 0.19 0.23 0.35 0.27 0.11 0.19 0.16 0.12 0.09 0.14 0.14 0.20 0.48 0.73 0.98 0.76 0.42 0.64 0.70 0.38 0.40 0.51 0.39 0.28 0.23 0.21
1.76 1.81 1.99 2.19 2.16 2.28 1.94 1.29 1.37 1.12 0.71 0.32 0.23 0.16 0.26 0.39 0.44 0.52 0.32 0.23 0.34 0.22 0.19 0.18 0.12 0.08 0.05 0.09 0.09 0.08 0.22 0.50 0.98 0.92 0.70 0.83 0.60 0.31 0.23 0.25 0.26 0.20 0.18 0.11
1.66 1.69 1.79 1.92 1.97 1.64 1.41 1.22 1.49 1.34 0.85 0.32 0.22 0.17 0.32 0.41 0.41 0.52 0.43 0.22 0.19 0.19 0.22 0.44 0.41 0.20 0.14 0.04 0.04 0.09 0.12 0.33 0.62 0.52 0.40 0.27 0.19 0.18 0.18 0.24 0.19 0.11 0.13 0.06
1.81 1.59 1.48 1.67 1.56 1.46 1.18 1.03 1.36 1.73 1.43 0.47 0.21 0.30 0.40 0.50 0.45 0.54 0.40 0.23 0.28 0.37 0.56 0.73 0.54 0.25 0.17 0.11 0.05 0.04 0.09 0.20 0.63 0.48 0.57 0.23 0.10 0.02 0.02 0.04 0.14 0.02 0.02 0.03
2.05 1.93 1.68 1.70 1.35 1.16 1.09 0.93 1.05 1.65 1.47 0.36 0.13 0.26 0.47 0.69 0.69 0.92 0.63 0.50 0.54 0.50 0.72 0.74 0.41 0.13 0.05 0.11 0.07 0.09 0.24 0.33 0.56 0.51 0.77 0.20 0.05 0.01 0.01 0.11 0.14 0.01 0.04 0.07
1.83 1.95 1.64 1.47 1.18 1.19 1.39 0.81 0.88 1.61 1.58 0.55 0.15 0.17 0.33 0.73 0.78 0.97 0.97 1.22 0.83 0.86 0.94 0.79 0.42 0.31 0.21 0.14 0.06 0.07 0.23 0.39 0.31 0.42 0.61 0.23 0.02 0.05 0.17 0.20 0.06 0.02 0.07 0.07
1.65 1.47 1.33 1.36 1.20 1.18 1.65 1.07 0.68 1.16 1.68 1.17 0.32 0.21 0.20 0.40 0.55 0.93 1.17 1.19 0.66 0.99 1.10 0.97 0.81 0.64 0.34 0.18 0.23 0.03 0.24 0.29 0.39 0.37 0.19 0.07 0.09 0.18 0.15 0.11 0.18 0.06 0.11 0.06
1.61 1.36 1.27 1.31 1.18 1.18 1.70 1.18 0.90 1.45 1.85 1.24 0.54 0.26 0.11 0.19 0.30 0.63 1.14 0.93 0.64 0.92 0.99 1.57 1.28 0.85 0.32 0.32 0.22 0.18 0.13 0.16 0.40 0.28 0.05 0.04 0.09 0.07 0.07 0.12 0.13 0.04 0.06 0.10
1.73 1.48 1.37 1.18 1.09 1.30 1.74 1.18 0.98 1.76 2.74 2.75 0.71 0.10 0.06 0.10 0.30 0.51 0.76 0.93 0.86 1.01 1.26 1.83 1.76 0.95 0.35 0.23 0.20 0.27 0.22 0.19 0.24 0.22 0.03 0.12 0.07 0.05 0.08 0.10 0.07 0.03 0.02 0.03
1.65 1.44 1.41 1.34 1.36 1.72 1.64 1.30 1.21 1.20 2.16 2.44 0.84 0.26 0.11 0.10 0.28 0.53 0.70 0.84 1.22 1.25 1.58 1.76 1.09 0.49 0.49 0.44 0.45 0.45 0.31 0.48 0.56 0.34 0.08 0.40 0.17 0.03 0.04 0.13 0.07 0.06 0.14 0.13
1.48 1.38 1.46 1.55 1.76 2.29 2.47 3.29 1.99 1.12 1.49 3.89 2.78 0.85 0.26 0.16 0.28 0.55 0.77 0.83 1.00 1.52 1.87 1.52 0.83 0.35 1.02 1.68 0.70 0.28 0.19 0.21 0.38 0.38 0.16 0.17 0.10 0.03 0.02 0.10 0.07 0.11 0.20 0.16
1.72 1.71 1.69 1.75 2.02 2.23 2.83 3.20 1.74 1.48 2.36 5.01 4.01 1.93 0.71 0.35 0.45 0.79 0.95 1.00 1.10 1.36 1.96 1.46 0.84 0.55 1.80 2.29 0.90 0.16 0.09 0.05 0.04 0.13 0.34 0.28 0.07 0.12 0.07 0.13 0.10 0.09 0.07 0.06
2.10 2.12 2.17 2.23 2.49 2.78 2.61 1.91 1.60 1.94 3.18 4.22 3.99 1.98 0.86 0.60 0.77 1.07 1.09 1.13 1.27 1.55 1.70 1.27 0.84 0.99 1.64 1.63 0.28 0.09 0.07 0.06 0.03 0.06 0.15 0.27 0.13 0.07 0.09 0.11 0.10 0.09 0.05 0.06
2.86 3.10 3.19 3.64 3.59 2.93 2.36 2.09 2.24 2.40 3.94 5.66 3.31 1.22 0.89 0.86 0.70 0.91 1.10 1.31 1.82 1.76 1.50 1.24 1.10 1.07 1.17 0.67 0.31 0.16 0.14 0.25 0.21 0.05 0.01 0.02 0.06 0.07 0.06 0.08 0.12 0.19 0.16 0.15
3.98 4.09 4.62 4.73 3.62 2.98 3.13 4.00 4.89 5.45 4.93 3.91 2.07 0.84 0.93 0.95 0.94 1.38 1.59 1.67 1.61 1.54 1.07 1.24 1.40 0.82 0.39 0.20 0.17 0.22 0.21 0.21 0.22 0.33 0.31 0.30 0.23 0.13 0.10 0.16 0.22 0.31 0.28 0.22
4.61 4.53 3.99 3.90 3.37 3.95 4.81 5.33 4.77 4.30 3.62 2.39 1.45 1.06 0.98 0.95 1.20 1.47 1.71 1.80 1.53 1.50 0.78 1.18 1.07 0.56 0.19 0.11 0.09 0.06 0.09 0.15 0.20 0.35 0.39 0.44 0.53 0.46 0.35 0.24 0.22 0.21 0.26 0.39
4.29 3.66 3.64 4.18 4.45 5.00 4.74 3.62 2.35 2.14 1.73 1.34 1.01 0.67 0.76 1.10 1.35 1.90 2.22 1.92 1.60 1.22 0.74 1.25 0.55 0.19 0.05 0.08 0.13 0.17 0.18 0.23 0.26 0.33 0.45 0.47 0.53 0.53 0.46 0.40 0.38 0.38 0.38 0.37
4.63 4.72 4.93 4.40 3.84 3.50 2.51 1.47 1.04 0.95 0.76 0.70 0.70 0.77 0.91 1.12 1.42 2.23 2.09 2.02 1.42 0.87 1.03 0.67 0.24 0.09 0.12 0.22 0.17 0.12 0.07 0.14 0.30 0.46 0.59 0.52 0.40 0.31 0.40 0.49 0.48 0.49 0.46 0.50
6.01 5.15 4.50 2.93 2.09 0.97 0.48 0.45 0.48 0.39 0.50 0.61 0.58 0.90 0.98 1.06 1.40 1.65 1.81 1.21 1.11 1.06 0.63 0.25 0.15 0.21 0.29 0.26 0.23 0.24 0.16 0.19 0.37 0.51 0.51 0.44 0.46 0.47 0.45 0.56 0.65 0.64 0.74 0.83
5.21 4.19 2.69 1.46 0.71 0.46 0.53 0.48 0.48 0.62 0.64 0.71 0.87 1.04 1.01 1.27 1.67 1.45 1.41 1.43 0.85 0.32 0.18 0.20 0.32 0.44 0.54 0.55 0.56 0.53 0.41 0.41 0.57 0.74 0.74 0.70 0.46 0.38 0.58 0.84 0.83 0.67 0.69 0.87
4.49 3.38 1.83 0.82 0.53 0.57 0.65 0.64 0.71 0.73 0.77 0.93 1.37 1.51 1.51 1.63 1.59 1.45 0.93 0.74 0.40 0.34 0.49 0.63 0.62 0.72 0.81 0.84 0.87 0.94 0.97 0.96 0.89 1.22 1.39 1.10 0.79 0.78 0.80 0.71 0.83 0.81 0.74 0.75
4.27 1.93 0.88 0.77 0.73 0.80 0.90 0.79 0.79 0.81 1.15 1.23 1.78 2.03 1.26 1.06 1.14 0.53 0.27 0.34 0.34 0.55 0.76 0.87 0.87 0.88 0.78 0.68 0.77 0.92 1.10 1.26 1.08 1.13 1.23 1.36 1.16 0.72 0.40 0.54 0.61 0.51 0.51 0.60

GFSNW_prec_precacc_297.txt.gz
Total_Precipitation_Accumulation
2.00 2.01 1.83 1.72 2.03 1.95 2.37 2.26 2.06 1.93 2.35 2.58 1.83 1.09 0.78 0.47 0.16 0.17 0.15 0.12 0.04 0.05 0.08 0.16 0.18 0.16 0.14 0.06 0.14 0.38 0.47 0.94 0.89 0.66 0.20 0.21 0.34 0.34 0.25 0.91 0.78 0.59 0.76 1.67
2.14 2.53 2.28 1.58 2.00 2.12 2.21 2.20 1.95 2.78 1.58 1.14 0.75 0.48 0.45 0.30 0.11 0.18 0.25 0.17 0.09 0.13 0.17 0.21 0.12 0.05 0.02 0.02 0.06 0.35 0.62 1.29 0.99 0.76 0.53 0.62 0.85 0.39 0.44 0.74 1.23 0.99 0.74 1.26
2.03 2.41 2.62 1.98 1.85 1.97 2.36 2.31 2.16 3.82 2.49 0.62 0.23 0.50 0.56 0.38 0.16 0.18 0.26 0.26 0.14 0.13 0.09 0.06 0.13 0.02 0.02 0.01 0.03 0.26 0.90 1.02 0.99 0.88 0.78 1.00 0.83 0.37 0.61 1.24 1.43 0.53 0.39 0.26
1.90 2.14 2.77 3.12 2.47 2.28 2.36 1.90 1.11 1.00 1.10 0.59 0.23 0.53 0.55 0.49 0.31 0.21 0.21 0.19 0.06 0.16 0.27 0.12 0.07 0.04 0.09 0.07 0.04 0.22 0.77 1.26 1.29 0.55 0.42 0.76 0.68 0.40 0.50 1.06 0.68 0.71 0.33 0.16
2.12 2.03 2.19 2.85 2.49 2.45 1.86 1.28 0.94 0.34 0.22 0.16 0.25 0.33 0.38 0.42 0.42 0.43 0.33 0.28 0.15 0.25 0.31 0.19 0.31 0.32 0.35 0.24 0.14 0.25 0.63 1.06 0.83 0.37 0.26 0.44 0.59 0.30 0.43 0.62 0.47 0.39 0.20 0.20
2.08 1.91 2.10 2.41 2.09 2.51 1.95 1.09 0.84 0.64 0.55 0.32 0.28 0.21 0.22 0.34 0.51 0.43 0.21 0.26 0.41 0.31 0.15 0.25 0.23 0.20 0.15 0.17 0.18 0.25 0.54 0.76 1.00 0.78 0.42 0.64 0.70 0.38 0.40 0.51 0.39 0.28 0.23 0.21
1.77 1.82 2.00 2.20 2.18 2.32 1.97 1.30 1.40 1.17 0.75 0.34 0.25 0.17 0.27 0.40 0.45 0.55 0.32 0.23 0.37 0.26 0.21 0.19 0.13 0.09 0.05 0.09 0.09 0.09 0.27 0.56 1.05 0.95 0.70 0.83 0.60 0.31 0.23 0.25 0.26 0.20 0.18 0.11
1.66 1.70 1.80 1.93 1.98 1.69 1.45 1.23 1.51 1.39 0.93 0.36 0.23 0.17 0.33 0.42 0.41 0.52 0.43 0.22 0.20 0.19 0.22 0.45 0.42 0.21 0.14 0.04 0.04 0.10 0.16 0.39 0.70 0.57 0.41 0.27 0.19 0.18 0.18 0.24 0.19 0.11 0.13 0.06
1.82 1.60 1.50 1.69 1.58 1.51 1.23 1.05 1.37 1.74 1.46 0.48 0.22 0.32 0.42 0.51 0.47 0.56 0.40 0.24 0.28 0.37 0.56 0.74 0.55 0.25 0.17 0.11 0.06 0.05 0.12 0.26 0.71 0.51 0.60 0.23 0.10 0.02 0.02 0.04 0.14 0.02 0.02 0.03
2.05 1.94 1.70 1.72 1.38 1.21 1.13 0.94 1.06 1.68 1.52 0.37 0.14 0.27 0.49 0.74 0.73 0.94 0.64 0.52 0.56 0.50 0.72 0.75 0.41 0.14 0.08 0.15 0.09 0.09 0.25 0.34 0.57 0.51 0.80 0.20 0.05 0.01 0.01 0.12 0.15 0.01 0.04 0.07
1.83 1.96 1.66 1.50 1.22 1.24 1.44 0.83 0.88 1.66 1.68 0.57 0.15 0.18 0.37 0.78 0.84 1.05 1.03 1.27 0.84 0.90 0.97 0.82 0.44 0.34 0.22 0.15 0.06 0.07 0.24 0.41 0.32 0.44 0.63 0.23 0.02 0.05 0.18 0.22 0.08 0.02 0.07 0.07
1.66 1.48 1.34 1.38 1.22 1.21 1.71 1.09 0.69 1.19 1.76 1.19 0.32 0.21 0.20 0.41 0.55 0.93 1.18 1.20 0.67 1.03 1.15 1.00 0.84 0.65 0.34 0.19 0.23 0.03 0.25 0.29 0.40 0.38 0.20 0.07 0.09 0.18 0.15 0.12 0.20 0.07 0.11 0.06
1.63 1.37 1.27 1.33 1.22 1.23 1.76 1.20 0.91 1.47 1.89 1.25 0.54 0.26 0.11 0.19 0.30 0.63 1.16 0.93 0.65 0.94 1.01 1.62 1.35 0.92 0.34 0.34 0.22 0.18 0.13 0.16 0.40 0.28 0.05 0.04 0.09 0.07 0.07 0.12 0.14 0.05 0.06 0.10
1.75 1.49 1.38 1.19 1.11 1.31 1.76 1.19 0.99 1.80 2.79 2.79 0.71 0.10 0.06 0.10 0.30 0.51 0.76 0.93 0.87 1.07 1.35 1.96 1.87 1.00 0.37 0.25 0.20 0.27 0.22 0.19 0.25 0.24 0.03 0.12 0.07 0.05 0.08 0.10 0.07 0.03 0.02 0.03
1.67 1.46 1.41 1.36 1.37 1.73 1.67 1.31 1.21 1.21 2.20 2.46 0.84 0.26 0.11 0.10 0.28 0.53 0.70 0.85 1.26 1.32 1.64 1.80 1.11 0.50 0.50 0.47 0.47 0.46 0.31 0.48 0.59 0.37 0.10 0.42 0.19 0.05 0.06 0.14 0.08 0.07 0.14 0.13
1.52 1.40 1.46 1.55 1.79 2.34 2.48 3.29 1.99 1.14 1.53 4.06 2.86 0.85 0.26 0.16 0.28 0.55 0.77 0.84 1.02 1.56 1.91 1.54 0.85 0.37 1.06 1.75 0.73 0.28 0.20 0.22 0.41 0.42 0.19 0.21 0.13 0.05 0.02 0.10 0.07 0.11 0.20 0.16
1.76 1.72 1.71 1.77 2.06 2.25 2.83 3.20 1.74 1.48 2.36 5.03 4.03 1.93 0.71 0.35 0.45 0.79 0.95 1.00 1.11 1.39 1.99 1.49 0.86 0.59 1.85 2.35 0.91 0.16 0.09 0.06 0.05 0.14 0.35 0.29 0.09 0.13 0.07 0.13 0.10 0.09 0.07 0.06
2.12 2.15 2.19 2.24 2.49 2.79 2.61 1.91 1.60 1.94 3.19 4.26 4.02 1.99 0.86 0.60 0.77 1.07 1.09 1.13 1.28 1.56 1.72 1.29 0.85 1.00 1.65 1.64 0.28 0.09 0.08 0.06 0.04 0.06 0.15 0.28 0.13 0.07 0.09 0.11 0.10 0.09 0.05 0.06
2.91 3.11 3.20 3.64 3.59 2.93 2.37 2.10 2.24 2.41 3.97 5.69 3.34 1.22 0.89 0.86 0.70 0.91 1.10 1.31 1.82 1.77 1.50 1.24 1.10 1.07 1.18 0.67 0.32 0.17 0.15 0.25 0.21 0.05 0.01 0.02 0.06 0.07 0.06 0.08 0.12 0.19 0.16 0.15
4.00 4.09 4.62 4.73 3.63 2.98 3.13 4.01 4.90 5.46 4.95 3.93 2.08 0.84 0.94 0.95 0.94 1.38 1.60 1.68 1.61 1.54 1.07 1.24 1.41 0.82 0.39 0.20 0.17 0.22 0.21 0.21 0.22 0.33 0.31 0.30 0.23 0.13 0.10 0.16 0.22 0.31 0.28 0.22
4.61 4.53 3.99 3.90 3.37 3.95 4.81 5.34 4.77 4.31 3.63 2.39 1.46 1.06 0.98 0.96 1.21 1.48 1.71 1.81 1.54 1.50 0.78 1.18 1.07 0.56 0.19 0.11 0.09 0.06 0.09 0.15 0.20 0.35 0.39 0.44 0.53 0.46 0.35 0.24 0.22 0.21 0.26 0.39
4.29 3.66 3.64 4.18 4.45 5.00 4.75 3.63 2.35 2.15 1.73 1.34 1.01 0.67 0.76 1.11 1.35 1.90 2.22 1.92 1.60 1.22 0.74 1.25 0.55 0.19 0.05 0.08 0.13 0.17 0.18 0.23 0.26 0.33 0.45 0.47 0.53 0.53 0.46 0.40 0.38 0.38 0.38 0.37
4.63 4.72 4.93 4.40 3.84 3.51 2.51 1.47 1.04 0.95 0.76 0.70 0.70 0.78 0.91 1.12 1.42 2.23 2.10 2.02 1.42 0.87 1.03 0.67 0.24 0.09 0.12 0.22 0.17 0.12 0.07 0.14 0.30 0.46 0.59 0.52 0.40 0.31 0.40 0.49 0.48 0.49 0.46 0.50
6.01 5.15 4.50 2.93 2.10 0.97 0.48 0.45 0.49 0.39 0.50 0.61 0.58 0.90 0.99 1.06 1.40 1.66 1.81 1.22 1.12 1.06 0.63 0.25 0.15 0.21 0.29 0.26 0.23 0.24 0.16 0.19 0.37 0.51 0.51 0.44 0.46 0.47 0.45 0.56 0.65 0.64 0.74 0.83
5.21 4.19 2.69 1.46 0.71 0.46 0.53 0.48 0.49 0.62 0.65 0.71 0.87 1.04 1.01 1.28 1.67 1.45 1.42 1.43 0.85 0.32 0.18 0.20 0.32 0.44 0.54 0.55 0.56 0.53 0.41 0.41 0.57 0.74 0.74 0.70 0.46 0.38 0.58 0.84 0.83 0.67 0.69 0.87
4.49 3.38 1.83 0.83 0.53 0.57 0.66 0.64 0.71 0.74 0.77 0.93 1.37 1.51 1.51 1.63 1.59 1.45 0.93 0.75 0.40 0.34 0.49 0.63 0.62 0.72 0.81 0.84 0.87 0.94 0.97 0.96 0.89 1.22 1.39 1.10 0.79 0.78 0.80 0.71 0.83 0.81 0.74 0.75
4.27 1.93 0.88 0.77 0.73 0.81 0.90 0.79 0.79 0.81 1.15 1.23 1.78 2.03 1.26 1.06 1.14 0.53 0.27 0.34 0.34 0.55 0.76 0.87 0.87 0.88 0.78 0.68 0.77 0.92 1.10 1.26 1.08 1.13 1.23 1.36 1.16 0.72 0.40 0.54 0.61 0.51 0.51 0.60

GFSNW_prec_precacc_300.txt.gz
Total_Precipitation_Accumulation
2.00 2.01 1.83 1.73 2.03 1.95 2.37 2.26 2.06 1.93 2.35 2.58 1.83 1.09 0.78 0.47 0.16 0.17 0.15 0.12 0.05 0.07 0.11 0.18 0.19 0.17 0.16 0.09 0.15 0.38 0.51 1.03 0.92 0.67 0.20 0.22 0.38 0.40 0.33 1.05 0.86 0.64 0.80 1.68
2.14 2.53 2.28 1.59 2.00 2.12 2.21 2.20 1.95 2.78 1.58 1.14 0.75 0.49 0.45 0.30 0.11 0.18 0.26 0.19 0.12 0.16 0.18 0.22 0.13 0.06 0.02 0.02 0.06 0.35 0.62 1.30 1.00 0.76 0.53 0.63 0.89 0.42 0.47 0.81 1.32 1.03 0.77 1.27
2.03 2.41 2.62 1.98 1.85 1.97 2.36 2.31 2.17 3.82 2.50 0.64 0.27 0.54 0.57 0.38 0.16 0.18 0.27 0.27 0.15 0.14 0.09 0.06 0.14 0.02 0.02 0.01 0.03 0.26 0.90 1.04 1.00 0.91 0.79 1.01 0.84 0.38 0.61 1.28 1.49 0.54 0.39 0.26
1.90 2.14 2.77 3.13 2.47 2.28 2.36 1.90 1.12 1.00 1.10 0.59 0.23 0.53 0.55 0.49 0.31 0.22 0.22 0.20 0.07 0.18 0.33 0.16 0.08 0.06 0.13 0.08 0.05 0.25 0.81 1.29 1.29 0.56 0.42 0.76 0.68 0.40 0.50 1.06 0.68 0.72 0.33 0.16
2.12 2.03 2.19 2.86 2.49 2.47 1.86 1.28 0.94 0.34 0.22 0.16 0.26 0.34 0.38 0.42 0.43 0.46 0.35 0.29 0.19 0.30 0.37 0.26 0.41 0.42 0.42 0.35 0.22 0.31 0.68 1.09 0.83 0.38 0.26 0.44 0.59 0.30 0.43 0.62 0.47 0.39 0.20 0.20
2.08 1.92 2.10 2.41 2.09 2.53 1.97 1.09 0.84 0.65 0.56 0.33 0.29 0.21 0.23 0.36 0.52 0.44 0.22 0.28 0.43 0.31 0.15 0.26 0.25 0.20 0.16 0.18 0.20 0.29 0.59 0.78 1.02 0.79 0.42 0.64 0.71 0.38 0.40 0.51 0.39 0.28 0.23 0.21
1.77 1.82 2.00 2.20 2.19 2.34 2.01 1.33 1.42 1.20 0.76 0.35 0.25 0.19 0.27 0.40 0.45 0.56 0.32 0.23 0.38 0.26 0.21 0.19 0.13 0.09 0.06 0.09 0.10 0.10 0.30 0.58 1.08 0.98 0.70 0.86 0.60 0.31 0.23 0.25 0.26 0.20 0.18 0.11
1.67 1.70 1.80 1.94 1.99 1.71 1.50 1.25 1.54 1.44 0.95 0.37 0.23 0.17 0.33 0.42 0.41 0.52 0.43 0.22 0.21 0.20 0.22 0.46 0.43 0.21 0.14 0.04 0.04 0.10 0.18 0.46 0.78 0.63 0.44 0.28 0.19 0.18 0.18 0.24 0.19 0.11 0.13 0.06
1.82 1.60 1.50 1.69 1.59 1.54 1.27 1.06 1.44 1.83 1.51 0.48 0.22 0.32 0.42 0.51 0.48 0.57 0.40 0.24 0.28 0.37 0.58 0.76 0.56 0.25 0.17 0.11 0.06 0.05 0.13 0.31 0.81 0.58 0.64 0.24 0.10 0.02 0.02 0.04 0.14 0.02 0.02 0.03
2.06 1.95 1.70 1.73 1.39 1.23 1.18 0.98 1.09 1.74 1.58 0.37 0.14 0.27 0.49 0.75 0.75 0.98 0.64 0.56 0.59 0.51 0.73 0.76 0.42 0.14 0.08 0.17 0.13 0.10 0.25 0.35 0.58 0.52 0.83 0.21 0.05 0.01 0.01 0.13 0.16 0.01 0.04 0.07
1.84 1.96 1.67 1.51 1.22 1.25 1.49 0.85 0.89 1.73 1.83 0.59 0.15 0.18 0.37 0.79 0.86 1.09 1.06 1.29 0.85 0.91 0.98 0.84 0.46 0.34 0.23 0.15 0.06 0.07 0.24 0.42 0.33 0.45 0.65 0.24 0.02 0.05 0.18 0.24 0.09 0.02 0.07 0.07
1.66 1.49 1.36 1.39 1.23 1.22 1.78 1.12 0.69 1.21 1.88 1.22 0.32 0.21 0.20 0.41 0.55 0.94 1.22 1.21 0.67 1.04 1.17 1.01 0.88 0.69 0.35 0.19 0.23 0.03 0.25 0.29 0.40 0.39 0.21 0.07 0.09 0.18 0.15 0.13 0.20 0.07 0.11 0.06
1.63 1.38 1.30 1.36 1.23 1.24 1.81 1.21 0.91 1.49 1.92 1.25 0.54 0.26 0.11 0.19 0.30 0.64 1.20 0.94 0.66 0.96 1.05 1.71 1.43 0.96 0.38 0.37 0.23 0.18 0.13 0.16 0.40 0.29 0.05 0.04 0.09 0.07 0.07 0.14 0.14 0.05 0.06 0.10
1.76 1.52 1.42 1.22 1.11 1.31 1.79 1.21 1.01 1.82 2.82 2.81 0.71 0.10 0.06 0.10 0.30 0.51 0.76 0.93 0.88 1.11 1.43 2.07 1.94 1.03 0.38 0.26 0.21 0.27 0.22 0.20 0.28 0.27 0.03 0.12 0.08 0.06 0.09 0.10 0.07 0.03 0.03 0.03
1.68 1.48 1.46 1.39 1.38 1.74 1.69 1.31 1.21 1.21 2.22 2.48 0.85 0.27 0.11 0.10 0.28 0.53 0.70 0.87 1.31 1.39 1.72 1.86 1.13 0.51 0.53 0.50 0.50 0.47 0.31 0.50 0.62 0.41 0.13 0.46 0.24 0.08 0.06 0.14 0.09 0.08 0.14 0.13
1.54 1.43 1.50 1.58 1.81 2.37 2.50 3.31 1.99 1.15 1.57 4.14 2.89 0.85 0.26 0.16 0.28 0.55 0.77 0.84 1.03 1.59 1.95 1.56 0.87 0.41 1.12 1.80 0.75 0.29 0.22 0.25 0.45 0.47 0.21 0.23 0.16 0.07 0.03 0.10 0.08 0.12 0.20 0.16
1.78 1.77 1.75 1.79 2.09 2.26 2.85 3.21 1.75 1.48 2.36 5.03 4.03 1.93 0.71 0.35 0.45 0.79 0.95 1.00 1.11 1.40 2.02 1.52 0.88 0.61 1.89 2.38 0.92 0.17 0.10 0.06 0.05 0.14 0.36 0.30 0.10 0.14 0.07 0.13 0.10 0.09 0.07 0.06
2.15 2.19 2.23 2.28 2.51 2.79 2.61 1.91 1.60 1.95 3.21 4.28 4.04 1.99 0.86 0.60 0.77 1.07 1.09 1.13 1.28 1.57 1.73 1.30 0.86 1.00 1.66 1.65 0.29 0.10 0.08 0.06 0.04 0.06 0.15 0.28 0.13 0.07 0.09 0.11 0.10 0.09 0.05 0.06
2.96 3.20 3.30 3.67 3.60 2.93 2.37 2.10 2.26 2.42 4.00 5.72 3.35 1.23 0.89 0.86 0.70 0.91 1.10 1.31 1.82 1.77 1.50 1.24 1.10 1.08 1.18 0.67 0.33 0.17 0.15 0.25 0.21 0.05 0.01 0.02 0.06 0.07 0.06 0.08 0.12 0.19 0.16 0.15
4.14 4.22 4.65 4.73 3.63 2.98 3.13 4.02 4.93 5.47 4.98 3.96 2.09 0.84 0.94 0.96 0.94 1.39 1.60 1.68 1.61 1.54 1.07 1.25 1.41 0.82 0.39 0.20 0.17 0.22 0.21 0.21 0.22 0.33 0.31 0.30 0.23 0.13 0.10 0.16 0.22 0.31 0.28 0.22
4.74 4.56 4.00 3.91 3.37 3.95 4.81 5.35 4.78 4.32 3.64 2.39 1.46 1.06 0.98 0.97 1.22 1.49 1.72 1.81 1.54 1.50 0.78 1.19 1.07 0.56 0.19 0.11 0.09 0.06 0.09 0.15 0.20 0.35 0.39 0.44 0.53 0.46 0.35 0.24 0.22 0.21 0.26 0.39
4.32 3.67 3.65 4.19 4.46 5.01 4.75 3.63 2.36 2.15 1.73 1.34 1.02 0.68 0.76 1.11 1.35 1.90 2.22 1.92 1.60 1.22 0.74 1.25 0.55 0.19 0.05 0.08 0.13 0.17 0.18 0.23 0.26 0.33 0.45 0.47 0.53 0.53 0.46 0.40 0.38 0.38 0.38 0.37
4.67 4.73 4.93 4.41 3.85 3.51 2.51 1.47 1.04 0.95 0.76 0.70 0.70 0.78 0.92 1.12 1.43 2.24 2.10 2.02 1.42 0.87 1.03 0.67 0.24 0.09 0.12 0.22 0.17 0.12 0.07 0.14 0.30 0.46 0.59 0.52 0.40 0.31 0.40 0.49 0.48 0.49 0.46 0.50
6.03 5.15 4.50 2.93 2.10 0.97 0.48 0.46 0.50 0.40 0.50 0.61 0.58 0.91 0.99 1.06 1.41 1.66 1.82 1.22 1.12 1.06 0.63 0.25 0.15 0.21 0.29 0.26 0.23 0.24 0.16 0.19 0.37 0.51 0.51 0.44 0.46 0.47 0.45 0.56 0.65 0.64 0.74 0.83
5.22 4.19 2.69 1.46 0.71 0.46 0.53 0.49 0.50 0.64 0.65 0.72 0.87 1.05 1.01 1.28 1.67 1.45 1.42 1.44 0.85 0.32 0.18 0.20 0.32 0.44 0.54 0.55 0.56 0.53 0.41 0.41 0.57 0.74 0.74 0.70 0.46 0.38 0.58 0.84 0.83 0.67 0.69 0.87
4.49 3.38 1.83 0.83 0.53 0.57 0.66 0.65 0.71 0.74 0.78 0.93 1.37 1.52 1.51 1.63 1.60 1.45 0.93 0.75 0.41 0.34 0.49 0.63 0.62 0.72 0.81 0.84 0.87 0.94 0.97 0.96 0.89 1.22 1.39 1.10 0.79 0.78 0.80 0.71 0.83 0.81 0.74 0.75
4.28 1.93 0.88 0.77 0.74 0.81 0.90 0.79 0.80 0.81 1.15 1.23 1.78 2.04 1.26 1.07 1.14 0.53 0.27 0.34 0.34 0.55 0.76 0.87 0.87 0.88 0.78 0.68 0.77 0.92 1.10 1.26 1.08 1.13 1.23 1.36 1.16 0.72 0.40 0.54 0.61 0.51 0.51 0.60